SES-4

Last updated on Sun Oct 06 2024 00:02:39 GMT+0000 (Coordinated Universal Time)

1 38087U 12007A 24279.17894813 -.00000158 00000+0 00000+0 0 9994 2 38087 0.0448 71.1824 0003051 143.4809 202.1145 1.00269721 46008
UTC large
Height (km)
Speed (km/s)
/
Latitude / Longitude
Inclination (degrees)
Orbital Period (minutes)
Azimuth
Elevation
Range (km)
Doppler Factor

Next 0 passes for location: London (51.5072 / 0.1276)

Sorry there are no passes over London.